GFSNE_sfc_30mbdewp_273.txt.gz
Dewpoint
54 54 54 53 54 54 59 58 56 54 54 55 55 58 59 60 61 62 62 61 59 58 57 59 59 59 59 58 57 56 56 56 57 58 61 57 53 51
53 54 55 55 54 54 54 54 58 58 56 57 57 58 60 60 61 62 62 61 59 58 58 58 58 57 55 54 53 53 53 54 56 57 53 52 50 48
48 49 51 54 54 54 54 54 53 53 52 56 59 59 58 58 59 60 61 60 59 57 55 54 53 53 52 51 53 54 55 54 52 51 50 49 46 44
46 47 47 47 51 54 53 53 54 54 52 52 53 59 59 59 60 59 59 58 56 52 52 51 51 50 50 51 51 50 49 49 48 47 46 44 42 40
43 44 45 47 46 49 51 51 51 51 52 53 52 55 56 58 56 55 54 52 50 49 49 49 48 48 48 48 47 46 45 44 43 42 40 39 38 36
42 43 44 46 46 46 47 49 51 50 49 51 53 53 55 56 55 54 53 52 49 48 45 45 46 45 45 44 43 42 41 40 39 38 36 35 34 34
39 41 43 44 42 42 41 42 44 48 49 49 46 52 52 52 53 52 53 49 46 44 42 42 42 41 41 41 42 41 40 39 37 36 34 33 33 33
35 35 39 40 39 40 37 37 41 43 46 48 47 44 43 50 49 48 45 46 48 41 40 38 40 39 39 39 39 38 38 37 36 35 34 33 33 34
34 34 35 34 36 37 35 36 38 40 41 41 44 46 46 46 46 46 46 46 45 40 39 36 36 36 37 38 38 37 37 36 35 34 33 33 34 33
33 34 34 34 35 34 34 33 35 36 37 39 40 40 40 41 41 43 43 42 39 38 38 38 33 32 33 36 37 36 35 34 33 33 33 33 33 33
30 31 32 33 34 32 31 30 30 30 34 35 38 38 38 39 39 39 40 41 41 38 36 36 31 29 30 31 35 35 34 33 33 33 33 33 34 34
30 30 31 32 33 32 31 30 29 29 30 31 33 34 36 37 38 38 38 38 39 39 36 37 29 30 29 29 31 33 33 34 33 33 33 34 35 33
29 29 30 31 32 32 32 31 30 30 30 30 31 31 32 35 36 36 36 37 38 39 36 35 30 30 28 26 28 30 32 31 31 32 35 35 34 31
28 29 29 30 30 31 32 31 31 30 29 29 29 29 31 32 35 36 34 34 35 37 36 34 32 31 28 26 25 29 30 30 29 27 28 31 31 31
29 30 31 32 31 30 31 31 31 30 28 28 28 29 30 33 34 33 33 34 33 34 35 34 33 31 29 27 26 27 26 26 27 25 25 25 26 27
29 30 31 31 31 31 31 30 30 30 28 29 30 31 33 33 33 33 33 32 32 31 33 34 32 31 29 29 27 26 26 23 25 25 25 25 26 27
30 29 27 28 28 28 29 29 30 30 29 30 30 31 32 32 32 32 32 32 31 30 29 30 31 31 30 28 26 25 24 23 24 24 24 23 24 25
29 27 27 27 27 28 29 30 30 31 30 30 30 31 31 32 31 31 31 31 30 29 28 28 28 27 26 27 27 23 23 22 24 24 24 22 22 25
28 26 27 28 29 29 30 30 30 31 32 31 31 31 32 32 31 30 30 31 29 28 28 29 28 26 23 20 25 27 22 23 23 22 23 22 21 23
27 28 28 28 29 28 29 30 31 31 31 31 31 31 32 31 30 30 30 29 28 28 28 29 29 27 22 21 21 24 26 23 22 21 21 23 25 26
27 28 28 29 29 29 30 31 31 31 31 31 31 31 32 31 30 30 30 29 29 28 27 26 27 28 26 24 20 20 24 27 25 22 23 21 21 21
27 28 28 29 29 29 30 30 30 30 31 31 31 32 32 31 30 29 29 28 28 26 25 26 27 27 24 20 19 19 21 25 28 28 28 24 20 18
28 28 28 29 30 30 30 29 29 30 31 31 32 32 31 30 30 30 29 28 26 25 25 25 25 25 23 21 20 20 21 22 23 22 24 26 25 25

GFSNE_sfc_30mbdewp_276.txt.gz
Dewpoint
51 53 55 55 55 55 55 54 53 51 52 55 54 59 58 59 59 60 61 60 59 58 57 56 55 56 57 59 60 61 61 60 59 59 58 60 61 60
48 48 49 52 54 55 55 54 54 53 50 52 53 54 55 59 60 60 60 60 60 58 57 57 56 56 57 58 58 57 56 56 56 56 56 59 58 55
44 45 45 47 48 49 53 54 54 54 52 53 54 54 54 55 56 56 60 60 60 59 57 55 54 56 57 56 55 54 53 54 54 55 56 55 53 51
41 43 43 45 46 47 47 49 51 52 52 51 52 53 54 55 56 56 57 60 58 56 53 51 51 51 51 51 52 53 54 54 53 52 52 51 50 47
39 41 42 43 44 45 45 45 46 47 50 49 48 51 53 54 55 55 54 52 50 49 48 48 49 49 50 50 50 50 50 49 49 48 46 45 44 42
38 38 38 42 41 40 40 39 39 42 45 46 47 49 48 52 54 54 53 53 53 49 48 47 48 49 50 48 47 46 45 44 43 42 40 38 37 37
35 36 35 37 38 37 37 36 36 39 41 43 45 47 46 46 47 50 50 48 46 45 43 42 42 42 42 43 43 42 41 40 39 38 36 35 35 35
31 33 34 34 35 36 35 35 35 37 38 38 40 41 44 46 43 44 45 44 46 41 41 39 40 39 39 40 40 40 39 39 38 37 35 34 34 35
30 30 31 31 34 34 34 32 32 32 35 36 35 37 38 40 39 39 42 44 44 41 39 37 36 35 37 39 39 38 38 37 37 36 35 35 34 34
30 30 31 31 32 32 32 31 30 30 31 31 33 34 36 37 37 38 39 40 40 39 39 39 33 32 34 37 38 37 36 35 34 34 34 34 34 34
30 30 30 31 31 32 32 31 30 30 31 31 32 32 33 35 36 37 36 37 38 39 36 36 31 30 31 32 35 35 35 34 34 34 34 34 34 34
28 28 29 29 29 29 29 29 28 29 29 29 30 30 31 32 34 36 37 36 37 39 37 37 31 31 28 29 32 32 33 33 33 33 34 35 35 32
27 27 28 29 29 29 29 28 28 30 30 31 28 28 29 31 32 34 35 36 36 38 38 36 31 31 29 26 29 31 32 31 31 33 35 35 34 32
27 28 29 29 30 31 31 30 30 30 31 30 28 27 27 28 31 33 35 34 35 36 38 35 34 32 29 26 26 29 29 29 29 28 30 32 32 31
30 30 31 29 30 31 30 31 31 31 30 29 28 28 28 29 31 33 33 33 33 33 35 35 34 31 30 28 26 27 26 26 27 26 27 27 28 29
29 29 30 29 29 30 30 30 30 30 30 29 29 30 31 32 32 33 32 32 32 31 33 33 33 31 30 29 27 26 25 22 25 25 26 27 28 29
29 29 28 28 27 27 28 29 30 30 30 31 30 30 31 31 32 33 32 32 31 29 28 30 30 30 30 28 25 25 23 23 24 25 25 24 26 27
28 27 27 26 27 27 28 28 28 30 30 31 30 30 30 31 31 32 31 31 30 29 27 28 28 26 25 26 26 23 23 23 25 25 25 23 23 26
27 27 27 27 27 27 28 28 28 29 31 31 30 30 30 31 31 31 30 31 29 28 28 28 28 26 23 19 24 27 22 24 24 23 24 24 22 24
26 27 26 26 27 28 28 28 29 30 30 31 31 31 31 30 31 30 30 30 29 28 27 29 29 26 22 21 20 24 27 24 23 22 22 24 25 26
26 27 27 27 27 28 28 28 29 29 30 30 31 31 31 31 31 31 30 30 29 28 26 26 26 26 26 24 20 21 25 27 25 22 23 22 21 21
27 27 26 27 28 28 28 29 29 29 29 30 31 31 31 31 31 30 30 29 28 27 24 25 27 26 23 19 19 20 23 26 28 28 27 23 22 19
27 27 27 28 29 29 29 29 29 29 29 30 31 31 31 30 31 30 30 28 26 25 25 24 24 24 23 21 20 21 22 22 23 22 23 26 25 25

GFSNE_sfc_30mbdewp_279.txt.gz
Dewpoint
47 47 48 49 52 53 55 55 53 50 51 53 53 54 56 57 56 58 60 60 59 58 57 55 55 55 55 56 57 59 61 63 63 63 63 62 62 62
43 43 44 45 46 48 49 49 53 53 50 52 53 54 55 56 56 58 57 55 58 58 57 57 56 55 55 55 55 57 59 60 61 61 60 60 59 60
39 40 41 43 44 46 47 47 47 48 47 50 52 53 52 55 56 57 57 57 58 59 58 57 56 56 55 54 55 56 57 58 58 58 57 57 57 60
35 37 38 40 42 43 43 43 44 43 43 43 47 49 49 50 52 54 55 56 57 56 55 54 54 54 53 53 53 53 55 55 54 54 54 55 57 55
33 34 35 35 39 39 38 40 39 39 40 42 43 46 48 50 49 49 51 55 57 53 49 48 48 48 49 50 51 51 51 52 53 52 53 53 51 50
32 33 33 33 34 35 34 36 35 36 37 39 40 42 45 47 47 48 46 48 47 49 47 45 45 46 46 48 50 51 52 52 49 47 45 44 43 43
31 30 31 32 34 33 33 33 33 33 34 35 36 38 40 41 41 41 41 44 45 43 43 42 42 43 43 43 43 44 44 43 42 40 39 38 38 39
29 29 30 30 31 32 33 33 32 31 30 30 31 32 34 36 38 37 38 39 39 43 41 40 39 38 38 40 40 40 39 39 39 38 37 37 37 37
28 29 29 28 31 31 31 31 31 32 31 31 30 30 31 33 33 33 35 37 38 41 40 39 36 34 36 39 39 38 38 38 37 36 36 36 36 36
29 30 29 29 30 31 30 30 30 30 32 32 31 30 30 31 32 33 34 36 38 40 39 38 34 32 34 37 38 37 37 36 36 36 35 35 35 34
28 28 29 29 29 30 28 27 27 28 30 31 32 32 32 30 31 31 31 33 34 39 37 37 32 32 32 32 33 35 35 35 35 35 35 35 34 32
27 28 28 29 29 29 29 28 28 28 29 30 31 31 31 29 31 32 31 30 33 35 37 37 32 32 30 30 31 32 31 32 32 32 33 33 32 32
28 28 28 28 29 30 30 29 29 30 31 31 31 32 32 31 31 32 33 33 32 34 38 37 33 32 31 28 30 31 31 31 31 32 34 34 33 32
28 29 29 29 29 30 29 29 30 31 31 31 30 30 31 31 32 33 33 34 35 34 36 36 35 34 32 28 27 29 30 30 30 30 32 32 32 32
30 30 31 30 30 30 29 29 30 30 31 30 29 30 32 33 33 33 34 35 34 33 33 35 35 33 32 30 26 27 26 27 29 29 30 30 31 32
29 29 29 29 29 29 29 29 29 29 30 30 30 31 32 31 31 32 32 33 31 32 32 33 34 32 30 29 28 26 26 23 27 28 29 30 31 31
28 28 28 27 27 27 27 28 29 29 29 30 30 31 31 30 30 33 32 32 30 30 28 29 30 30 30 28 25 25 24 25 27 28 28 27 29 30
27 27 26 27 27 27 27 27 28 28 29 29 29 30 30 30 30 32 32 31 30 30 27 28 27 26 26 26 27 24 25 25 27 28 29 26 26 28
26 27 26 27 27 27 27 27 28 28 28 29 30 30 31 31 30 31 31 31 30 29 28 29 29 28 25 21 25 29 25 26 27 28 28 27 25 27
25 25 26 26 27 27 27 28 28 29 29 29 29 30 31 30 30 31 31 30 30 29 28 30 30 28 24 23 23 26 29 27 26 25 25 26 26 27
25 26 26 27 28 28 28 29 29 29 29 29 29 30 31 30 30 31 31 31 30 30 29 28 28 28 28 25 23 23 26 29 29 26 27 25 24 25
26 26 27 28 29 29 29 29 29 29 30 30 30 30 31 31 31 31 31 31 31 29 26 27 29 29 27 22 22 23 24 27 28 28 27 26 26 23
28 28 28 29 30 30 29 29 29 28 30 30 30 31 31 31 31 31 31 30 28 27 26 26 27 26 25 24 23 24 23 24 24 23 24 25 25 24

GFSNE_sfc_30mbdewp_282.txt.gz
Dewpoint
41 42 42 43 44 46 49 48 46 44 48 50 51 55 58 58 59 58 57 56 55 55 54 54 55 55 55 55 55 55 57 58 60 62 63 63 64 65
36 37 38 40 42 43 45 46 46 45 43 46 47 48 50 51 51 51 52 53 55 55 55 55 55 55 55 54 54 54 55 56 57 59 62 62 63 63
35 35 36 37 37 42 42 42 42 42 41 42 43 45 47 48 49 50 52 53 53 54 52 54 54 53 52 52 52 53 54 54 55 57 59 61 62 62
34 34 34 34 35 36 37 36 38 38 40 38 40 40 41 44 46 49 49 49 50 48 48 49 47 46 46 47 47 48 50 52 53 55 57 58 58 59
32 33 33 33 33 33 34 33 33 33 34 35 37 39 39 42 44 45 45 45 46 46 47 46 45 45 45 43 44 46 48 50 51 53 54 55 55 55
32 33 32 32 32 31 31 31 31 32 31 31 32 34 36 36 40 40 40 41 42 44 46 45 42 43 41 42 42 42 45 47 50 51 51 50 49 50
30 30 30 31 32 33 30 31 31 30 30 30 30 31 32 34 34 36 35 36 39 44 44 43 41 41 40 40 40 40 40 40 41 42 42 42 43 43
28 29 30 30 31 31 32 32 31 30 30 30 30 30 30 32 33 33 33 32 33 41 41 41 40 38 38 39 39 39 38 38 38 38 39 39 39 39
29 29 29 28 31 31 30 30 30 31 31 31 30 30 30 31 31 30 30 31 31 35 37 38 40 36 37 38 38 38 37 37 37 37 37 37 37 36
29 29 29 29 29 30 28 27 28 28 28 29 29 31 30 30 30 30 30 31 32 34 38 36 38 34 35 36 37 36 36 36 36 36 36 36 35 34
28 28 28 28 28 28 27 28 28 29 29 30 30 31 31 31 32 32 30 29 29 31 38 38 37 34 33 32 32 33 34 35 35 35 35 33 32 31
27 27 28 28 29 30 27 27 27 29 30 31 31 32 33 32 32 32 31 29 29 30 36 36 33 33 32 31 31 31 32 32 32 32 32 32 32 31
28 29 29 29 29 29 30 29 29 30 31 31 32 33 33 34 35 36 34 32 30 30 34 35 34 33 33 30 30 31 32 31 31 31 32 32 32 32
28 29 29 29 30 30 31 30 30 30 31 32 32 31 32 33 35 36 36 35 35 33 34 35 33 34 32 30 27 29 30 31 32 31 31 32 32 32
28 29 29 29 29 30 30 30 30 31 31 30 30 31 32 33 32 33 33 34 35 35 34 34 32 34 33 31 27 27 27 28 31 31 31 31 31 32
28 29 29 29 29 29 29 30 30 30 30 30 30 31 32 32 31 32 33 32 32 33 33 32 34 33 31 30 29 26 27 26 30 31 31 31 31 32
27 28 28 28 28 28 28 28 29 29 29 30 31 30 30 30 29 31 33 33 31 31 30 29 30 30 30 29 26 27 27 28 30 30 30 29 29 30
28 28 28 28 27 28 28 28 29 29 29 29 29 29 29 29 30 30 32 32 30 31 29 28 28 27 27 27 30 27 29 28 30 31 31 27 26 28
26 27 27 27 28 28 28 28 28 29 29 29 29 30 30 29 31 31 31 32 31 31 31 30 30 30 26 22 27 31 28 29 30 30 30 28 26 27
26 26 27 27 28 29 29 29 29 29 29 30 30 30 31 31 30 30 31 31 31 31 30 30 31 31 28 26 25 28 31 30 28 27 26 27 26 27
26 27 27 28 29 29 30 30 30 30 30 30 30 31 31 31 30 31 32 31 31 32 30 29 29 31 30 28 25 26 27 30 30 28 29 28 27 27
27 27 28 29 30 30 30 31 31 31 31 30 31 31 32 31 31 31 31 31 32 30 28 29 31 31 30 25 24 25 25 27 27 27 27 28 29 25
28 30 30 31 31 31 31 30 30 30 31 30 31 31 31 31 32 32 32 32 30 29 29 28 29 29 28 26 25 25 26 26 24 22 24 25 25 26

GFSNE_sfc_30mbdewp_288.txt.gz
Dewpoint
39 38 39 38 38 39 39 39 38 35 34 36 37 38 39 39 40 42 43 46 49 48 47 44 46 47 46 45 46 46 46 47 48 50 51 53 54 55
36 37 37 37 37 37 38 38 36 36 34 35 35 37 38 37 38 40 41 41 43 45 43 40 40 44 45 44 44 43 44 44 45 46 48 49 52 54
35 35 36 36 36 36 37 35 33 34 32 32 35 35 35 35 37 39 39 38 38 40 38 38 38 39 44 43 42 41 42 42 43 43 44 46 49 52
33 34 34 34 35 36 34 33 34 33 33 32 32 33 33 35 36 37 38 38 38 36 37 36 37 39 43 43 41 41 40 40 40 41 42 43 45 49
32 33 34 34 34 33 33 32 32 33 31 30 30 31 32 33 33 35 36 35 34 34 33 34 37 43 40 42 40 39 38 40 40 39 40 40 42 45
32 33 34 34 33 32 31 32 31 31 28 27 27 28 30 30 32 31 31 31 31 31 32 35 37 34 35 40 40 39 38 39 40 40 39 39 42 43
31 32 32 33 34 31 30 30 30 28 28 26 26 26 26 26 27 31 30 30 28 29 31 31 30 32 34 37 40 38 38 38 39 39 40 39 39 41
30 31 31 30 30 30 29 30 31 29 28 27 27 27 27 28 30 29 30 29 26 29 29 30 30 30 32 36 39 37 37 37 38 38 38 37 38 38
30 30 29 29 29 28 28 31 31 31 31 29 27 28 29 30 30 29 28 28 28 30 31 30 30 30 34 38 37 37 37 37 37 37 36 35 35 35
29 29 28 28 28 30 30 29 29 28 29 28 29 29 30 30 29 29 30 31 31 31 32 29 30 32 34 36 36 35 34 34 35 35 34 34 33 33
28 29 29 28 28 29 29 28 28 28 29 30 31 32 32 32 32 32 31 30 29 31 32 31 33 31 31 32 32 33 33 32 33 33 33 33 32 32
28 28 28 29 28 29 28 28 28 29 30 31 31 31 32 33 34 34 34 31 30 29 33 31 30 30 30 32 32 32 32 32 33 33 33 33 32 31
27 28 28 29 29 29 29 29 29 30 31 31 31 32 32 32 33 34 34 34 31 31 32 33 31 30 30 30 31 31 31 32 31 31 32 33 33 32
27 28 28 29 29 29 30 31 31 31 31 32 32 31 31 31 32 33 34 34 35 34 35 35 31 31 30 30 30 30 31 31 31 31 31 32 32 32
28 28 29 29 30 30 31 30 30 31 31 31 30 30 31 32 32 33 33 34 34 34 35 35 34 32 31 29 30 29 29 30 31 31 31 30 30 31
28 28 29 29 30 30 30 30 31 31 32 32 31 32 32 31 31 33 33 33 32 32 33 33 31 30 29 30 30 28 29 28 30 30 30 29 29 29
28 29 29 29 28 29 29 30 30 31 31 33 32 32 31 31 31 33 33 32 31 30 31 30 31 31 31 31 28 29 29 29 30 29 27 25 26 27
29 28 28 28 28 28 29 30 31 31 32 32 32 32 31 31 31 32 32 32 30 31 31 30 29 29 29 30 32 29 30 29 29 29 27 24 24 27
28 27 27 28 28 29 30 30 30 31 31 31 32 31 31 31 31 30 31 31 31 31 31 31 30 29 25 23 29 33 28 29 27 25 25 24 23 24
27 27 27 28 30 30 30 30 31 31 31 31 31 31 31 31 30 30 30 30 30 31 30 31 31 29 27 25 24 27 32 28 25 24 24 25 27 28
28 28 29 30 30 30 30 30 30 30 30 30 30 31 31 31 30 30 31 31 31 30 27 27 29 31 30 26 23 23 26 30 29 26 27 26 24 24
29 29 29 30 30 30 30 30 29 29 30 30 30 31 31 31 30 30 31 30 29 28 28 29 31 30 27 23 22 23 24 26 28 28 29 28 27 21
29 29 30 30 29 30 30 29 29 29 30 30 30 30 31 30 31 31 32 31 30 29 29 28 28 29 28 25 23 23 22 23 22 22 25 27 27 26